Time,TemperatureF,DewpointF,PressureIn,WindDirection,WindDirectionDegrees,WindSpeedMPH,WindSpeedGustMPH,Humidity,HourlyPrecipIn,Conditions,Clouds,dailyrainin,SoftwareType,DateUTC
2013-09-03 00:05:00,85.3,52.1,29.66,SE,138,2.0,6.0,32,0.00,,,0.00,Wunderground v.1.15,2013-09-03 07:05:00,
2013-09-03 07:05:00,79.4,55.0,29.70,NNW,327,0.0,6.0,43,0.00,,,0.00,Wunderground v.1.15,2013-09-03 14:05:00,
2013-09-03 07:10:00,79.4,55.0,29.70,NNW,327,0.0,0.0,43,0.00,,,0.00,Wunderground v.1.15,2013-09-03 14:10:00,
2013-09-03 07:15:00,79.4,55.0,29.71,NNW,327,0.0,0.0,43,0.00,,,0.00,Wunderground v.1.15,2013-09-03 14:15:00,
2013-09-03 07:20:00,79.6,55.1,29.71,NNW,329,0.0,0.0,43,0.00,,,0.00,Wunderground v.1.15,2013-09-03 14:20:00,
2013-09-03 07:30:00,80.1,54.9,29.71,NNW,329,0.0,0.0,42,0.00,,,0.00,Wunderground v.1.15,2013-09-03 14:30:00,
2013-09-03 07:35:00,80.5,55.3,29.71,NNW,329,0.0,0.0,42,0.00,,,0.00,Wunderground v.1.15,2013-09-03 14:35:00,
2013-09-03 07:40:00,80.3,56.4,29.71,NNW,329,0.0,0.0,44,0.00,,,0.00,Wunderground v.1.15,2013-09-03 14:40:00,
2013-09-03 07:45:00,80.3,55.8,29.71,NNW,329,0.0,0.0,43,0.00,,,0.00,Wunderground v.1.15,2013-09-03 14:45:00,
2013-09-03 07:50:00,80.7,56.8,29.71,NNW,329,0.0,0.0,44,0.00,,,0.00,Wunderground v.1.15,2013-09-03 14:50:00,
2013-09-03 07:55:00,81.2,57.2,29.71,NNW,329,0.0,0.0,44,0.00,,,0.00,Wunderground v.1.15,2013-09-03 14:55:00,
2013-09-03 08:00:00,81.8,55.1,29.72,NW,322,0.0,0.0,40,0.00,,,0.00,Wunderground v.1.15,2013-09-03 15:00:00,
2013-09-03 08:05:00,82.6,55.1,29.72,WNW,294,0.0,0.0,39,0.00,,,0.00,Wunderground v.1.15,2013-09-03 15:05:00,
2013-09-03 08:15:00,83.2,56.4,29.72,West,262,0.0,0.0,40,0.00,,,0.00,Wunderground v.1.15,2013-09-03 15:15:00,
2013-09-03 08:20:00,83.2,56.4,29.72,West,262,0.0,0.0,40,0.00,,,0.00,Wunderground v.1.15,2013-09-03 15:20:00,
2013-09-03 08:25:00,84.0,56.4,29.72,NE,51,0.0,0.0,39,0.00,,,0.00,Wunderground v.1.15,2013-09-03 15:25:00,
2013-09-03 08:30:00,84.3,55.2,29.72,NE,50,0.0,0.0,37,0.00,,,0.00,Wunderground v.1.15,2013-09-03 15:30:00,
2013-09-03 08:40:00,84.7,54.0,29.72,North,360,0.0,0.0,35,0.00,,,0.00,Wunderground v.1.15,2013-09-03 15:40:00,
2013-09-03 08:45:00,84.7,55.5,29.73,North,355,0.0,0.0,37,0.00,,,0.00,Wunderground v.1.15,2013-09-03 15:45:00,
2013-09-03 08:50:00,84.7,53.2,29.73,North,355,0.0,0.0,34,0.00,,,0.00,Wunderground v.1.15,2013-09-03 15:50:00,
2013-09-03 08:55:00,85.3,54.5,29.73,NE,49,0.0,0.0,35,0.00,,,0.00,Wunderground v.1.15,2013-09-03 15:55:00,
2013-09-03 09:00:00,86.1,54.5,29.73,ENE,73,0.0,0.0,34,0.00,,,0.00,Wunderground v.1.15,2013-09-03 16:00:00,
2013-09-03 09:05:00,85.7,54.9,29.73,West,262,0.0,0.0,35,0.00,,,0.00,Wunderground v.1.15,2013-09-03 16:05:00,
2013-09-03 09:10:00,86.1,52.8,29.73,West,262,0.0,0.0,32,0.00,,,0.00,Wunderground v.1.15,2013-09-03 16:10:00,
2013-09-03 09:15:00,86.7,52.4,29.73,SW,235,1.0,5.0,31,0.00,,,0.00,Wunderground v.1.15,2013-09-03 16:15:00,
2013-09-03 09:20:00,87.4,53.1,29.73,WNW,286,2.0,2.0,31,0.00,,,0.00,Wunderground v.1.15,2013-09-03 16:20:00,
2013-09-03 09:25:00,87.2,51.1,29.73,West,261,2.0,2.0,29,0.00,,,0.00,Wunderground v.1.15,2013-09-03 16:25:00,
2013-09-03 09:30:00,87.4,51.2,29.73,WSW,252,1.0,1.0,29,0.00,,,0.00,Wunderground v.1.15,2013-09-03 16:30:00,
2013-09-03 09:35:00,88.0,54.4,29.73,West,280,0.0,1.0,32,0.00,,,0.00,Wunderground v.1.15,2013-09-03 16:35:00,
2013-09-03 09:40:00,88.4,51.1,29.73,WNW,288,1.0,1.0,28,0.00,,,0.00,Wunderground v.1.15,2013-09-03 16:40:00,
2013-09-03 09:45:00,88.2,52.9,29.73,NW,323,1.0,1.0,30,0.00,,,0.00,Wunderground v.1.15,2013-09-03 16:45:00,
2013-09-03 09:50:00,88.2,51.0,29.73,SSE,150,0.0,0.0,28,0.00,,,0.00,Wunderground v.1.15,2013-09-03 16:50:00,
2013-09-03 09:55:00,88.6,50.3,29.73,SSW,204,0.0,0.0,27,0.00,,,0.00,Wunderground v.1.15,2013-09-03 16:55:00,
2013-09-03 10:05:00,89.3,50.9,29.73,SW,221,0.0,0.0,27,0.00,,,0.00,Wunderground v.1.15,2013-09-03 17:05:00,
2013-09-03 10:10:00,89.9,50.4,29.73,SSW,208,0.0,1.0,26,0.00,,,0.00,Wunderground v.1.15,2013-09-03 17:10:00,
2013-09-03 10:15:00,90.7,51.1,29.73,SW,216,0.0,1.0,26,0.00,,,0.00,Wunderground v.1.15,2013-09-03 17:15:00,
2013-09-03 10:20:00,91.8,52.0,29.73,SW,232,0.0,0.0,26,0.00,,,0.00,Wunderground v.1.15,2013-09-03 17:20:00,
2013-09-03 10:25:00,92.1,52.3,29.73,SSW,209,1.0,1.0,26,0.00,,,0.00,Wunderground v.1.15,2013-09-03 17:25:00,
2013-09-03 10:30:00,91.8,51.0,29.73,SSW,201,2.0,2.0,25,0.00,,,0.00,Wunderground v.1.15,2013-09-03 17:30:00,
2013-09-03 10:35:00,91.4,50.6,29.73,SSW,196,2.0,11.0,25,0.00,,,0.00,Wunderground v.1.15,2013-09-03 17:35:00,
2013-09-03 10:40:00,91.2,51.5,29.73,SSW,205,4.0,5.0,26,0.00,,,0.00,Wunderground v.1.15,2013-09-03 17:40:00,
2013-09-03 10:45:00,91.4,50.6,29.73,South,191,4.0,5.0,25,0.00,,,0.00,Wunderground v.1.15,2013-09-03 17:45:00,
2013-09-03 10:50:00,91.4,50.6,29.73,SSW,211,3.0,3.0,25,0.00,,,0.00,Wunderground v.1.15,2013-09-03 17:50:00,
2013-09-03 10:55:00,91.6,48.6,29.73,SSW,212,3.0,3.0,23,0.00,,,0.00,Wunderground v.1.15,2013-09-03 17:55:00,
2013-09-03 11:05:00,92.3,49.1,29.73,SSW,209,4.0,6.0,23,0.00,,,0.00,Wunderground v.1.15,2013-09-03 18:05:00,
2013-09-03 11:10:00,92.5,48.1,29.73,SW,225,4.0,5.0,22,0.00,,,0.00,Wunderground v.1.15,2013-09-03 18:10:00,
2013-09-03 11:15:00,93.4,48.9,29.73,SSW,200,4.0,5.0,22,0.00,,,0.00,Wunderground v.1.15,2013-09-03 18:15:00,
2013-09-03 11:20:00,93.2,48.7,29.73,SSW,211,6.0,6.0,22,0.00,,,0.00,Wunderground v.1.15,2013-09-03 18:20:00,
2013-09-03 11:25:00,93.4,50.1,29.73,SW,220,4.0,6.0,23,0.00,,,0.00,Wunderground v.1.15,2013-09-03 18:25:00,
2013-09-03 11:30:00,93.6,49.0,29.73,SW,217,3.0,3.0,22,0.00,,,0.00,Wunderground v.1.15,2013-09-03 18:30:00,
2013-09-03 11:35:00,93.8,49.2,29.73,SSW,205,3.0,3.0,22,0.00,,,0.00,Wunderground v.1.15,2013-09-03 18:35:00,
2013-09-03 11:45:00,94.3,49.6,29.73,SSW,212,1.0,2.0,22,0.00,,,0.00,Wunderground v.1.15,2013-09-03 18:45:00,
2013-09-03 11:50:00,93.8,48.0,29.73,SW,223,3.0,3.0,21,0.00,,,0.00,Wunderground v.1.15,2013-09-03 18:50:00,
2013-09-03 11:55:00,93.8,46.7,29.73,SSW,211,3.0,3.0,20,0.00,,,0.00,Wunderground v.1.15,2013-09-03 18:55:00,
2013-09-03 12:00:00,94.3,47.1,29.72,SSW,207,1.0,4.0,20,0.00,,,0.00,Wunderground v.1.15,2013-09-03 19:00:00,
2013-09-03 12:05:00,93.6,47.8,29.72,WSW,250,3.0,4.0,21,0.00,,,0.00,Wunderground v.1.15,2013-09-03 19:05:00,
2013-09-03 12:10:00,94.0,46.8,29.72,SSW,202,3.0,4.0,20,0.00,,,0.00,Wunderground v.1.15,2013-09-03 19:10:00,
2013-09-03 12:15:00,94.0,46.8,29.72,SSW,194,2.0,4.0,20,0.00,,,0.00,Wunderground v.1.15,2013-09-03 19:15:00,
2013-09-03 12:20:00,94.3,48.4,29.72,SSW,202,3.0,3.0,21,0.00,,,0.00,Wunderground v.1.15,2013-09-03 19:20:00,
2013-09-03 12:25:00,94.5,49.8,29.72,SSW,204,3.0,3.0,22,0.00,,,0.00,Wunderground v.1.15,2013-09-03 19:25:00,
2013-09-03 12:30:00,94.9,48.9,29.71,SW,221,3.0,6.0,21,0.00,,,0.00,Wunderground v.1.15,2013-09-03 19:30:00,
2013-09-03 12:35:00,95.6,49.4,29.71,SSW,207,3.0,6.0,21,0.00,,,0.00,Wunderground v.1.15,2013-09-03 19:35:00,
2013-09-03 12:45:00,95.9,49.7,29.71,SW,231,5.0,5.0,21,0.00,,,0.00,Wunderground v.1.15,2013-09-03 19:45:00,
2013-09-03 12:50:00,95.6,49.4,29.71,WSW,255,5.0,6.0,21,0.00,,,0.00,Wunderground v.1.15,2013-09-03 19:50:00,
2013-09-03 12:55:00,95.4,49.3,29.71,SSW,208,6.0,6.0,21,0.00,,,0.00,Wunderground v.1.15,2013-09-03 19:55:00,
2013-09-03 13:00:00,95.6,49.4,29.70,SW,216,7.0,9.0,21,0.00,,,0.00,Wunderground v.1.15,2013-09-03 20:00:00,
2013-09-03 13:05:00,95.9,50.9,29.70,ESE,113,5.0,9.0,22,0.00,,,0.00,Wunderground v.1.15,2013-09-03 20:05:00,
2013-09-03 13:10:00,96.1,48.5,29.70,SSW,210,4.0,5.0,20,0.00,,,0.00,Wunderground v.1.15,2013-09-03 20:10:00,
2013-09-03 13:15:00,95.4,49.3,29.70,SSW,201,4.0,6.0,21,0.00,,,0.00,Wunderground v.1.15,2013-09-03 20:15:00,
2013-09-03 13:20:00,95.9,49.7,29.70,SW,217,5.0,6.0,21,0.00,,,0.00,Wunderground v.1.15,2013-09-03 20:20:00,
2013-09-03 13:25:00,95.9,49.7,29.70,WSW,247,4.0,7.0,21,0.00,,,0.00,Wunderground v.1.15,2013-09-03 20:25:00,
2013-09-03 13:30:00,96.3,50.0,29.69,SSW,211,4.0,10.0,21,0.00,,,0.00,Wunderground v.1.15,2013-09-03 20:30:00,
2013-09-03 13:35:00,96.3,48.7,29.69,SSW,198,6.0,10.0,20,0.00,,,0.00,Wunderground v.1.15,2013-09-03 20:35:00,
2013-09-03 13:40:00,96.6,50.3,29.69,SSW,213,5.0,5.0,21,0.00,,,0.00,Wunderground v.1.15,2013-09-03 20:40:00,
2013-09-03 13:50:00,97.1,49.4,29.69,South,190,4.0,13.0,20,0.00,,,0.00,Wunderground v.1.15,2013-09-03 20:50:00,
2013-09-03 13:55:00,96.3,48.7,29.69,WSW,244,6.0,13.0,20,0.00,,,0.00,Wunderground v.1.15,2013-09-03 20:55:00,
2013-09-03 14:00:00,96.3,50.0,29.68,SSW,195,6.0,6.0,21,0.00,,,0.00,Wunderground v.1.15,2013-09-03 21:00:00,
2013-09-03 14:05:00,97.3,50.8,29.68,SSW,205,1.0,7.0,21,0.00,,,0.00,Wunderground v.1.15,2013-09-03 21:05:00,
2013-09-03 14:10:00,97.3,49.5,29.68,SSW,205,2.0,2.0,20,0.00,,,0.00,Wunderground v.1.15,2013-09-03 21:10:00,
2013-09-03 14:15:00,97.1,49.4,29.68,SW,218,4.0,9.0,20,0.00,,,0.00,Wunderground v.1.15,2013-09-03 21:15:00,
2013-09-03 14:25:00,96.8,49.1,29.68,SSW,206,4.0,5.0,20,0.00,,,0.00,Wunderground v.1.15,2013-09-03 21:25:00,
2013-09-03 14:35:00,95.6,50.7,29.68,SW,218,4.0,5.0,22,0.00,,,0.00,Wunderground v.1.15,2013-09-03 21:35:00,
2013-09-03 14:40:00,95.6,49.4,29.68,SSW,204,1.0,1.0,21,0.00,,,0.00,Wunderground v.1.15,2013-09-03 21:40:00,
2013-09-03 14:45:00,96.1,48.5,29.67,SW,219,1.0,3.0,20,0.00,,,0.00,Wunderground v.1.15,2013-09-03 21:45:00,
2013-09-03 14:50:00,97.1,50.7,29.67,SW,219,2.0,2.0,21,0.00,,,0.00,Wunderground v.1.15,2013-09-03 21:50:00,
2013-09-03 14:55:00,96.3,50.0,29.67,SW,229,4.0,4.0,21,0.00,,,0.00,Wunderground v.1.15,2013-09-03 21:55:00,
2013-09-03 15:00:00,95.6,51.9,29.66,South,177,4.0,4.0,23,0.00,,,0.00,Wunderground v.1.15,2013-09-03 22:00:00,
2013-09-03 15:05:00,96.3,50.0,29.66,SSW,198,3.0,4.0,21,0.00,,,0.00,Wunderground v.1.15,2013-09-03 22:05:00,
2013-09-03 15:15:00,97.3,49.5,29.66,SSW,195,4.0,4.0,20,0.00,,,0.00,Wunderground v.1.15,2013-09-03 22:15:00,
2013-09-03 15:20:00,97.5,49.7,29.66,South,186,3.0,9.0,20,0.00,,,0.00,Wunderground v.1.15,2013-09-03 22:20:00,
2013-09-03 15:25:00,97.5,49.7,29.66,WSW,238,6.0,9.0,20,0.00,,,0.00,Wunderground v.1.15,2013-09-03 22:25:00,
2013-09-03 15:30:00,98.0,50.1,29.65,SSW,201,7.0,7.0,20,0.00,,,0.00,Wunderground v.1.15,2013-09-03 22:30:00,
2013-09-03 15:40:00,98.2,50.3,29.65,SW,215,4.0,5.0,20,0.00,,,0.00,Wunderground v.1.15,2013-09-03 22:40:00,
2013-09-03 15:50:00,97.5,49.7,29.65,South,188,5.0,5.0,20,0.00,,,0.00,Wunderground v.1.15,2013-09-03 22:50:00,
2013-09-03 15:55:00,97.5,49.7,29.65,SSW,198,3.0,5.0,20,0.00,,,0.00,Wunderground v.1.15,2013-09-03 22:55:00,
2013-09-03 16:00:00,97.8,51.3,29.64,SW,224,1.0,1.0,21,0.00,,,0.00,Wunderground v.1.15,2013-09-03 23:00:00,
2013-09-03 16:05:00,98.0,50.1,29.64,SSW,211,3.0,4.0,20,0.00,,,0.00,Wunderground v.1.15,2013-09-03 23:05:00,
2013-09-03 16:10:00,98.0,50.1,29.64,SSW,209,5.0,5.0,20,0.00,,,0.00,Wunderground v.1.15,2013-09-03 23:10:00,
2013-09-03 16:15:00,97.8,49.9,29.63,SSE,161,5.0,5.0,20,0.00,,,0.00,Wunderground v.1.15,2013-09-03 23:15:00,
2013-09-03 16:20:00,97.8,49.9,29.63,SW,226,4.0,4.0,20,0.00,,,0.00,Wunderground v.1.15,2013-09-03 23:20:00,
2013-09-03 16:25:00,98.0,48.7,29.63,SSW,200,2.0,11.0,19,0.00,,,0.00,Wunderground v.1.15,2013-09-03 23:25:00,
2013-09-03 16:30:00,98.2,48.9,29.63,SSW,201,4.0,9.0,19,0.00,,,0.00,Wunderground v.1.15,2013-09-03 23:30:00,
2013-09-03 16:35:00,97.8,48.6,29.63,SSW,208,7.0,9.0,19,0.00,,,0.00,Wunderground v.1.15,2013-09-03 23:35:00,
2013-09-03 16:40:00,97.8,48.6,29.63,SW,220,7.0,7.0,19,0.00,,,0.00,Wunderground v.1.15,2013-09-03 23:40:00,
2013-09-03 16:45:00,97.5,49.7,29.63,SSW,197,6.0,9.0,20,0.00,,,0.00,Wunderground v.1.15,2013-09-03 23:45:00,
2013-09-03 16:50:00,97.8,48.6,29.63,SSW,192,7.0,7.0,19,0.00,,,0.00,Wunderground v.1.15,2013-09-03 23:50:00,
2013-09-03 16:55:00,97.8,49.9,29.63,SW,228,5.0,7.0,20,0.00,,,0.00,Wunderground v.1.15,2013-09-03 23:55:00,
2013-09-03 17:00:00,98.0,50.1,29.63,SSW,205,3.0,9.0,20,0.00,,,0.00,Wunderground v.1.15,2013-09-04 00:00:00,
2013-09-03 17:05:00,97.3,49.5,29.63,SW,231,6.0,12.0,20,0.00,,,0.00,Wunderground v.1.15,2013-09-04 00:05:00,
2013-09-03 17:10:00,97.1,49.4,29.63,South,178,5.0,5.0,20,0.00,,,0.00,Wunderground v.1.15,2013-09-04 00:10:00,
2013-09-03 17:15:00,97.5,49.7,29.63,SW,217,3.0,5.0,20,0.00,,,0.00,Wunderground v.1.15,2013-09-04 00:15:00,
2013-09-03 17:20:00,97.3,49.5,29.63,SW,216,5.0,9.0,20,0.00,,,0.00,Wunderground v.1.15,2013-09-04 00:20:00,
2013-09-03 17:25:00,97.1,49.4,29.63,SSW,200,7.0,9.0,20,0.00,,,0.00,Wunderground v.1.15,2013-09-04 00:25:00,
2013-09-03 17:30:00,97.3,49.5,29.62,South,186,6.0,6.0,20,0.00,,,0.00,Wunderground v.1.15,2013-09-04 00:30:00,
2013-09-03 17:35:00,97.1,49.4,29.62,SSW,209,5.0,10.0,20,0.00,,,0.00,Wunderground v.1.15,2013-09-04 00:35:00,
2013-09-03 17:40:00,96.6,49.0,29.62,SSW,212,4.0,9.0,20,0.00,,,0.00,Wunderground v.1.15,2013-09-04 00:40:00,
2013-09-03 17:45:00,96.3,48.7,29.62,WSW,242,6.0,9.0,20,0.00,,,0.00,Wunderground v.1.15,2013-09-04 00:45:00,
2013-09-03 17:50:00,96.6,49.0,29.62,SW,219,8.0,11.0,20,0.00,,,0.00,Wunderground v.1.15,2013-09-04 00:50:00,
2013-09-03 17:55:00,96.3,50.0,29.62,SSW,200,7.0,11.0,21,0.00,,,0.00,Wunderground v.1.15,2013-09-04 00:55:00,
2013-09-03 18:00:00,96.3,48.7,29.62,SSW,209,5.0,6.0,20,0.00,,,0.00,Wunderground v.1.15,2013-09-04 01:00:00,
2013-09-03 18:05:00,95.9,48.4,29.62,SW,220,5.0,6.0,20,0.00,,,0.00,Wunderground v.1.15,2013-09-04 01:05:00,
2013-09-03 18:15:00,95.9,48.4,29.63,SW,228,6.0,6.0,20,0.00,,,0.00,Wunderground v.1.15,2013-09-04 01:15:00,
2013-09-03 18:20:00,95.6,49.4,29.63,South,185,5.0,5.0,21,0.00,,,0.00,Wunderground v.1.15,2013-09-04 01:20:00,
2013-09-03 18:25:00,95.1,47.7,29.63,SSW,213,5.0,6.0,20,0.00,,,0.00,Wunderground v.1.15,2013-09-04 01:25:00,
2013-09-03 18:30:00,94.9,47.6,29.63,SSW,210,5.0,5.0,20,0.00,,,0.00,Wunderground v.1.15,2013-09-04 01:30:00,
2013-09-03 18:35:00,94.9,48.9,29.63,WSW,238,4.0,5.0,21,0.00,,,0.00,Wunderground v.1.15,2013-09-04 01:35:00,
2013-09-03 18:40:00,94.7,47.4,29.63,SW,218,3.0,5.0,20,0.00,,,0.00,Wunderground v.1.15,2013-09-04 01:40:00,
2013-09-03 18:45:00,94.5,47.2,29.63,SSW,209,4.0,5.0,20,0.00,,,0.00,Wunderground v.1.15,2013-09-04 01:45:00,
2013-09-03 18:50:00,94.3,48.4,29.63,SSW,196,4.0,4.0,21,0.00,,,0.00,Wunderground v.1.15,2013-09-04 01:50:00,
2013-09-03 18:55:00,94.0,48.1,29.63,SSW,209,4.0,6.0,21,0.00,,,0.00,Wunderground v.1.15,2013-09-04 01:55:00,
2013-09-03 19:00:00,93.8,48.0,29.63,SSW,200,4.0,6.0,21,0.00,,,0.00,Wunderground v.1.15,2013-09-04 02:00:00,
2013-09-03 19:05:00,93.4,48.9,29.63,SW,221,3.0,6.0,22,0.00,,,0.00,Wunderground v.1.15,2013-09-04 02:05:00,
2013-09-03 19:15:00,92.9,48.5,29.64,SSW,207,1.0,2.0,22,0.00,,,0.00,Wunderground v.1.15,2013-09-04 02:15:00,
2013-09-03 19:25:00,92.5,49.3,29.64,SW,219,0.0,1.0,23,0.00,,,0.00,Wunderground v.1.15,2013-09-04 02:25:00,
2013-09-03 19:30:00,92.1,49.0,29.64,SSW,208,0.0,0.0,23,0.00,,,0.00,Wunderground v.1.15,2013-09-04 02:30:00,
2013-09-03 19:40:00,91.8,48.7,29.64,SW,216,0.0,0.0,23,0.00,,,0.00,Wunderground v.1.15,2013-09-04 02:40:00,
2013-09-03 19:45:00,91.8,48.7,29.64,WSW,244,2.0,7.0,23,0.00,,,0.00,Wunderground v.1.15,2013-09-04 02:45:00,
2013-09-03 19:50:00,91.8,48.7,29.64,SSW,201,4.0,4.0,23,0.00,,,0.00,Wunderground v.1.15,2013-09-04 02:50:00,
2013-09-03 19:55:00,91.6,49.7,29.64,SW,220,5.0,5.0,24,0.00,,,0.00,Wunderground v.1.15,2013-09-04 02:55:00,
2013-09-03 20:00:00,91.4,49.5,29.65,SW,227,4.0,4.0,24,0.00,,,0.00,Wunderground v.1.15,2013-09-04 03:00:00,
2013-09-03 20:05:00,91.2,49.4,29.65,SW,223,3.0,4.0,24,0.00,,,0.00,Wunderground v.1.15,2013-09-04 03:05:00,
2013-09-03 20:10:00,90.7,48.9,29.65,SSW,211,2.0,2.0,24,0.00,,,0.00,Wunderground v.1.15,2013-09-04 03:10:00,
2013-09-03 20:15:00,90.5,49.9,29.65,SW,219,1.0,2.0,25,0.00,,,0.00,Wunderground v.1.15,2013-09-04 03:15:00,
2013-09-03 20:20:00,90.3,49.7,29.65,SSW,209,1.0,2.0,25,0.00,,,0.00,Wunderground v.1.15,2013-09-04 03:20:00,
2013-09-03 20:25:00,90.3,49.7,29.65,SSW,211,2.0,4.0,25,0.00,,,0.00,Wunderground v.1.15,2013-09-04 03:25:00,
2013-09-03 20:30:00,90.1,49.5,29.66,SW,230,3.0,3.0,25,0.00,,,0.00,Wunderground v.1.15,2013-09-04 03:30:00,
2013-09-03 20:35:00,89.9,49.4,29.66,SW,236,2.0,4.0,25,0.00,,,0.00,Wunderground v.1.15,2013-09-04 03:35:00,
2013-09-03 20:40:00,89.9,49.4,29.66,SW,217,3.0,9.0,25,0.00,,,0.00,Wunderground v.1.15,2013-09-04 03:40:00,
2013-09-03 20:45:00,89.9,49.4,29.67,SW,215,3.0,9.0,25,0.00,,,0.00,Wunderground v.1.15,2013-09-04 03:45:00,
2013-09-03 20:50:00,89.5,50.1,29.67,SW,217,2.0,2.0,26,0.00,,,0.00,Wunderground v.1.15,2013-09-04 03:50:00,
2013-09-03 20:55:00,89.0,49.7,29.67,SSW,209,0.0,2.0,26,0.00,,,0.00,Wunderground v.1.15,2013-09-04 03:55:00,
2013-09-03 21:00:00,88.6,50.3,29.67,SSW,213,0.0,0.0,27,0.00,,,0.00,Wunderground v.1.15,2013-09-04 04:00:00,
2013-09-03 21:05:00,88.2,50.0,29.67,SSW,211,0.0,0.0,27,0.00,,,0.00,Wunderground v.1.15,2013-09-04 04:05:00,
2013-09-03 21:10:00,88.0,49.8,29.67,SW,218,0.0,0.0,27,0.00,,,0.00,Wunderground v.1.15,2013-09-04 04:10:00,
2013-09-03 21:15:00,87.8,50.6,29.68,SW,224,0.0,0.0,28,0.00,,,0.00,Wunderground v.1.15,2013-09-04 04:15:00,
2013-09-03 21:20:00,87.6,50.5,29.68,SSW,211,0.0,0.0,28,0.00,,,0.00,Wunderground v.1.15,2013-09-04 04:20:00,
2013-09-03 21:25:00,87.4,50.3,29.68,SSW,210,0.0,0.0,28,0.00,,,0.00,Wunderground v.1.15,2013-09-04 04:25:00,
2013-09-03 21:30:00,87.0,50.0,29.68,SSW,210,0.0,0.0,28,0.00,,,0.00,Wunderground v.1.15,2013-09-04 04:30:00,
2013-09-03 21:35:00,86.5,50.5,29.68,SSW,210,0.0,0.0,29,0.00,,,0.00,Wunderground v.1.15,2013-09-04 04:35:00,
2013-09-03 21:40:00,86.1,50.1,29.68,SSW,210,0.0,0.0,29,0.00,,,0.00,Wunderground v.1.15,2013-09-04 04:40:00,
2013-09-03 21:45:00,85.5,50.5,29.69,SSW,210,0.0,0.0,30,0.00,,,0.00,Wunderground v.1.15,2013-09-04 04:45:00,
2013-09-03 21:50:00,85.3,51.2,29.69,SSW,210,0.0,0.0,31,0.00,,,0.00,Wunderground v.1.15,2013-09-04 04:50:00,
2013-09-03 21:55:00,85.1,51.9,29.69,SW,215,0.0,0.0,32,0.00,,,0.00,Wunderground v.1.15,2013-09-04 04:55:00,
2013-09-03 22:00:00,84.9,51.7,29.69,SW,217,0.0,0.0,32,0.00,,,0.00,Wunderground v.1.15,2013-09-04 05:00:00,
2013-09-03 22:05:00,84.7,51.6,29.69,SSW,213,0.0,0.0,32,0.00,,,0.00,Wunderground v.1.15,2013-09-04 05:05:00,
2013-09-03 22:10:00,84.7,50.7,29.69,SSW,213,0.0,0.0,31,0.00,,,0.00,Wunderground v.1.15,2013-09-04 05:10:00,
2013-09-03 22:15:00,84.7,51.6,29.69,SSW,213,0.0,0.0,32,0.00,,,0.00,Wunderground v.1.15,2013-09-04 05:15:00,
2013-09-03 22:20:00,84.7,50.7,29.69,SSW,203,0.0,0.0,31,0.00,,,0.00,Wunderground v.1.15,2013-09-04 05:20:00,
2013-09-03 22:25:00,85.1,50.2,29.69,SW,215,0.0,0.0,30,0.00,,,0.00,Wunderground v.1.15,2013-09-04 05:25:00,
2013-09-03 22:30:00,85.5,49.6,29.69,SSW,202,0.0,0.0,29,0.00,,,0.00,Wunderground v.1.15,2013-09-04 05:30:00,
2013-09-03 22:35:00,85.9,50.0,29.69,SSW,196,0.0,0.0,29,0.00,,,0.00,Wunderground v.1.15,2013-09-04 05:35:00,
2013-09-03 22:40:00,85.9,50.0,29.69,WSW,242,0.0,0.0,29,0.00,,,0.00,Wunderground v.1.15,2013-09-04 05:40:00,
2013-09-03 22:45:00,86.1,49.2,29.69,SSW,209,0.0,0.0,28,0.00,,,0.00,Wunderground v.1.15,2013-09-04 05:45:00,
2013-09-03 22:50:00,86.3,49.4,29.69,SSW,198,0.0,0.0,28,0.00,,,0.00,Wunderground v.1.15,2013-09-04 05:50:00,
2013-09-03 22:55:00,86.1,49.2,29.69,SSW,198,0.0,0.0,28,0.00,,,0.00,Wunderground v.1.15,2013-09-04 05:55:00,
2013-09-03 23:00:00,85.7,49.8,29.70,SSW,193,0.0,0.0,29,0.00,,,0.00,Wunderground v.1.15,2013-09-04 06:00:00,
2013-09-03 23:05:00,85.1,49.3,29.70,SSW,213,0.0,0.0,29,0.00,,,0.00,Wunderground v.1.15,2013-09-04 06:05:00,
2013-09-03 23:10:00,84.7,49.8,29.70,SW,215,0.0,0.0,30,0.00,,,0.00,Wunderground v.1.15,2013-09-04 06:10:00,
2013-09-03 23:15:00,84.7,49.8,29.70,SW,215,0.0,0.0,30,0.00,,,0.00,Wunderground v.1.15,2013-09-04 06:15:00,
2013-09-03 23:20:00,84.5,49.7,29.70,South,190,0.0,0.0,30,0.00,,,0.00,Wunderground v.1.15,2013-09-04 06:20:00,
2013-09-03 23:30:00,85.5,48.7,29.70,SSW,202,0.0,0.0,28,0.00,,,0.00,Wunderground v.1.15,2013-09-04 06:30:00,
2013-09-03 23:35:00,85.7,48.8,29.70,SSW,202,0.0,0.0,28,0.00,,,0.00,Wunderground v.1.15,2013-09-04 06:35:00,
2013-09-03 23:40:00,85.5,48.7,29.70,South,188,0.0,0.0,28,0.00,,,0.00,Wunderground v.1.15,2013-09-04 06:40:00,
2013-09-03 23:45:00,85.3,49.4,29.70,SW,233,0.0,0.0,29,0.00,,,0.00,Wunderground v.1.15,2013-09-04 06:45:00,
2013-09-03 23:50:00,84.9,49.1,29.70,WSW,248,0.0,0.0,29,0.00,,,0.00,Wunderground v.1.15,2013-09-04 06:50:00,
2013-09-03 23:55:00,84.7,48.9,29.70,SW,235,0.0,0.0,29,0.00,,,0.00,Wunderground v.1.15,2013-09-04 06:55:00,